Location: Banksville Park
(38.5557°N, 75.1182°W)
Time: 04:50:46
(UTC+00:00)

Cosmos 1812 - Pass Details

Date: 19 September 2020
Orbit: 517 x 521 km, 82.5° (Epoch: 20 October)

Event Time Altitude Azimuth Distance (km) Brightness Sun altitude
Exits shadow 09:12:34 47° 225° (SW) 697 2.9 -18.8°
Maximum altitude 09:13:25 61° 278° (W) 591 2.6 -18.6°
Drops below altitude 10° 09:17:15 10° 0° (N) 1,760 5.6 -17.9°
Sets 09:19:25 0° 4° (N) 2,654 6.6 -17.5°
